| time (UTC) | temp F | wind direction | speed MPH | gust MPH | rain 1hr in | rain 24hr in | rain mn in | humidity % | barometer mb |
| 20260510165929 | 59 | 188 | 0.0 | 0.0 | 0.00 | 0.00 | 0.00 | 10 | 1010.0 |
| 20260510165429 | 59 | 175 | 0.0 | 0.0 | 0.00 | 0.00 | 0.00 | 10 | 1010.0 |
| 20260510164929 | 59 | 174 | 0.0 | 0.0 | 0.00 | 0.00 | 0.00 | 10 | 1010.0 |
| 20260510164429 | 60 | 179 | 0.0 | 0.0 | 0.00 | 0.00 | 0.00 | 10 | 1010.0 |
| 20260510163929 | 61 | 172 | 0.0 | 0.0 | 0.00 | 0.00 | 0.00 | 10 | 1010.0 |
| 20260510163433 | 62 | 198 | 0.0 | 0.0 | 0.00 | 0.00 | 0.00 | 10 | 1010.0 |
| 20260510162930 | 62 | 180 | 0.0 | 0.0 | 0.00 | 0.00 | 0.00 | 10 | 1010.0 |
| 20260510162433 | 62 | 177 | 0.0 | 0.0 | 0.00 | 0.00 | 0.00 | 10 | 1010.0 |
| 20260510161929 | 63 | 171 | 0.0 | 0.0 | 0.00 | 0.00 | 0.00 | 10 | 1010.0 |
| 20260510161429 | 63 | 195 | 0.0 | 0.0 | 0.00 | 0.00 | 0.00 | 10 | 1010.0 |
| 20260510160929 | 63 | 178 | 0.0 | 0.0 | 0.00 | 0.00 | 0.00 | 10 | 1010.0 |
| 20260510160429 | 64 | 179 | 0.0 | 0.0 | 0.00 | 0.00 | 0.00 | 10 | 1010.0 |
| 20260510155929 | 64 | 196 | 0.0 | 0.0 | 0.00 | 0.00 | 0.00 | 10 | 1010.0 |
| 20260510155429 | 64 | 184 | 0.0 | 0.0 | 0.00 | 0.00 | 0.00 | 10 | 1010.0 |
| 20260510154929 | 64 | 170 | 0.0 | 0.0 | 0.00 | 0.00 | 0.00 | 10 | 1010.0 |
| 20260510154432 | 64 | 196 | 0.0 | 0.0 | 0.00 | 0.00 | 0.00 | 10 | 1010.0 |
| 20260510153929 | 63 | 170 | 0.0 | 0.0 | 0.00 | 0.00 | 0.00 | 10 | 1010.0 |
| 20260510153429 | 63 | 197 | 0.0 | 0.0 | 0.00 | 0.00 | 0.00 | 10 | 1010.0 |
| 20260510152929 | 62 | 176 | 0.0 | 0.0 | 0.00 | 0.00 | 0.00 | 10 | 1011.0 |
| 20260510152429 | 62 | 182 | 0.0 | 0.0 | 0.00 | 0.00 | 0.00 | 10 | 1011.0 |
| 20260510151929 | 61 | 193 | 0.0 | 0.0 | 0.00 | 0.00 | 0.00 | 10 | 1011.0 |
| 20260510151429 | 61 | 173 | 0.0 | 0.0 | 0.00 | 0.00 | 0.00 | 10 | 1011.0 |
| 20260510150929 | 61 | 191 | 0.0 | 0.0 | 0.00 | 0.00 | 0.00 | 10 | 1011.0 |
| 20260510150429 | 61 | 182 | 0.0 | 0.0 | 0.00 | 0.00 | 0.00 | 10 | 1011.0 |
| 20260510145929 | 61 | 195 | 0.0 | 0.0 | 0.00 | 0.00 | 0.00 | 10 | 1011.0 |
| 20260510145429 | 61 | 195 | 0.0 | 0.0 | 0.00 | 0.00 | 0.00 | 10 | 1011.0 |
| 20260510144929 | 62 | 177 | 0.0 | 0.0 | 0.00 | 0.00 | 0.00 | 10 | 1011.0 |
| 20260510144429 | 62 | 197 | 0.0 | 0.0 | 0.00 | 0.00 | 0.00 | 10 | 1011.0 |
| 20260510143929 | 62 | 176 | 0.0 | 0.0 | 0.00 | 0.00 | 0.00 | 10 | 1011.0 |
| 20260510143429 | 62 | 200 | 0.0 | 0.0 | 0.00 | 0.00 | 0.00 | 10 | 1011.0 |
| 20260510142929 | 62 | 178 | 0.0 | 0.0 | 0.00 | 0.00 | 0.00 | 10 | 1011.0 |
| 20260510142429 | 62 | 179 | 0.0 | 0.0 | 0.00 | 0.00 | 0.00 | 10 | 1011.0 |
| 20260510141929 | 63 | 180 | 0.0 | 0.0 | 0.00 | 0.00 | 0.00 | 10 | 1011.0 |
| 20260510141429 | 64 | 185 | 0.0 | 0.0 | 0.00 | 0.00 | 0.00 | 10 | 1011.0 |
| 20260510140929 | 64 | 180 | 0.0 | 0.0 | 0.00 | 0.00 | 0.00 | 10 | 1011.0 |
| 20260510140429 | 64 | 205 | 0.0 | 0.0 | 0.00 | 0.00 | 0.00 | 10 | 1011.0 |
| 20260510135929 | 65 | 204 | 0.0 | 0.0 | 0.00 | 0.00 | 0.00 | 10 | 1011.0 |
| 20260510135429 | 66 | 192 | 0.0 | 0.0 | 0.00 | 0.00 | 0.00 | 10 | 1011.0 |
| 20260510134930 | 65 | 203 | 0.0 | 0.0 | 0.00 | 0.00 | 0.00 | 10 | 1011.0 |
| 20260510134429 | 65 | 177 | 0.0 | 0.0 | 0.00 | 0.00 | 0.00 | 10 | 1011.0 |
| 20260510133929 | 65 | 198 | 0.0 | 0.0 | 0.00 | 0.00 | 0.00 | 10 | 1011.0 |
| 20260510133429 | 65 | 192 | 0.0 | 0.0 | 0.00 | 0.00 | 0.00 | 10 | 1011.0 |
| 20260510132929 | 65 | 176 | 0.0 | 0.0 | 0.00 | 0.00 | 0.00 | 10 | 1011.0 |
| 20260510132429 | 65 | 177 | 0.0 | 0.0 | 0.00 | 0.00 | 0.00 | 10 | 1011.0 |
| 20260510131929 | 65 | 184 | 0.0 | 0.0 | 0.00 | 0.00 | 0.00 | 10 | 1011.0 |
| 20260510131429 | 64 | 176 | 0.0 | 0.0 | 0.00 | 0.00 | 0.00 | 10 | 1011.0 |
| 20260510130929 | 65 | 197 | 0.0 | 0.0 | 0.00 | 0.00 | 0.00 | 10 | 1011.0 |
| 20260510130429 | 66 | 199 | 0.0 | 0.0 | 0.00 | 0.00 | 0.00 | 10 | 1011.0 |
| 20260510125929 | 65 | 198 | 0.0 | 0.0 | 0.00 | 0.00 | 0.00 | 10 | 1011.0 |
| 20260510125431 | 66 | 197 | 0.0 | 0.0 | 0.00 | 0.00 | 0.00 | 10 | 1011.0 |
| 20260510124929 | 66 | 195 | 0.0 | 0.0 | 0.00 | 0.00 | 0.00 | 10 | 1011.0 |
| 20260510124431 | 66 | 186 | 0.0 | 0.0 | 0.00 | 0.00 | 0.00 | 10 | 1011.0 |
| 20260510123929 | 67 | 180 | 0.0 | 0.0 | 0.00 | 0.00 | 0.00 | 10 | 1011.0 |
| 20260510123432 | 69 | 172 | 0.0 | 0.0 | 0.00 | 0.00 | 0.00 | 14 | 1011.0 |
| 20260510122930 | 69 | 179 | 0.0 | 0.0 | 0.00 | 0.00 | 0.00 | 12 | 1011.0 |
| 20260510122433 | 70 | 192 | 0.0 | 0.0 | 0.00 | 0.00 | 0.00 | 14 | 1011.0 |
| 20260510121929 | 69 | 184 | 0.0 | 0.0 | 0.00 | 0.00 | 0.00 | 14 | 1011.0 |
| 20260510121433 | 69 | 183 | 0.0 | 0.0 | 0.00 | 0.00 | 0.00 | 14 | 1011.0 |
| 20260510120929 | 69 | 173 | 0.0 | 0.0 | 0.00 | 0.00 | 0.00 | 14 | 1011.0 |
| 20260510120429 | 69 | 181 | 0.0 | 0.0 | 0.00 | 0.00 | 0.00 | 14 | 1011.0 |
| 20260510115929 | 70 | 188 | 0.0 | 0.0 | 0.00 | 0.00 | 0.00 | 14 | 1011.0 |
| 20260510115433 | 69 | 193 | 0.0 | 0.0 | 0.00 | 0.00 | 0.00 | 14 | 1011.0 |
| 20260510114929 | 69 | 184 | 0.0 | 0.0 | 0.00 | 0.00 | 0.00 | 14 | 1011.0 |
| 20260510114429 | 69 | 167 | 0.0 | 0.0 | 0.00 | 0.00 | 0.00 | 14 | 1011.0 |
| 20260510113929 | 69 | 187 | 0.0 | 0.0 | 0.00 | 0.00 | 0.00 | 14 | 1011.0 |
| 20260510113429 | 69 | 187 | 0.0 | 0.0 | 0.00 | 0.00 | 0.00 | 14 | 1011.0 |
| 20260510112929 | 69 | 169 | 0.0 | 0.0 | 0.00 | 0.00 | 0.00 | 14 | 1011.0 |
| 20260510112429 | 69 | 191 | 0.0 | 0.0 | 0.00 | 0.00 | 0.00 | 14 | 1011.0 |
| 20260510111929 | 69 | 193 | 0.0 | 0.0 | 0.00 | 0.00 | 0.00 | 14 | 1011.0 |
| 20260510111429 | 69 | 170 | 0.0 | 0.0 | 0.00 | 0.00 | 0.00 | 14 | 1011.0 |
| 20260510110929 | 69 | 170 | 0.0 | 0.0 | 0.00 | 0.00 | 0.00 | 14 | 1011.0 |
| 20260510110429 | 69 | 170 | 0.0 | 0.0 | 0.00 | 0.00 | 0.00 | 14 | 1011.0 |
| 20260510105929 | 69 | 167 | 0.0 | 0.0 | 0.00 | 0.00 | 0.00 | 14 | 1011.0 |
| 20260510105429 | 69 | 190 | 0.0 | 0.0 | 0.00 | 0.00 | 0.00 | 14 | 1011.0 |
| 20260510104929 | 69 | 169 | 0.0 | 0.0 | 0.00 | 0.00 | 0.00 | 14 | 1011.0 |
| 20260510104430 | 69 | 172 | 0.0 | 0.0 | 0.00 | 0.00 | 0.00 | 14 | 1011.0 |
| 20260510103929 | 68 | 193 | 0.0 | 0.0 | 0.00 | 0.00 | 0.00 | 14 | 1011.0 |
| 20260510103429 | 68 | 167 | 0.0 | 0.0 | 0.00 | 0.00 | 0.00 | 15 | 1011.0 |
| 20260510102929 | 68 | 191 | 0.0 | 0.0 | 0.00 | 0.00 | 0.00 | 12 | 1011.0 |
| 20260510102429 | 68 | 172 | 0.0 | 0.0 | 0.00 | 0.00 | 0.00 | 15 | 1011.0 |
| 20260510101930 | 68 | 192 | 0.0 | 0.0 | 0.00 | 0.00 | 0.00 | 14 | 1011.0 |
| 20260510101429 | 68 | 189 | 0.0 | 0.0 | 0.00 | 0.00 | 0.00 | 15 | 1011.0 |
| 20260510100929 | 68 | 171 | 0.0 | 0.0 | 0.00 | 0.00 | 0.00 | 15 | 1011.0 |
| 20260510100429 | 68 | 173 | 0.0 | 0.0 | 0.00 | 0.00 | 0.00 | 12 | 1011.0 |
| 20260510095929 | 68 | 188 | 0.0 | 0.0 | 0.00 | 0.00 | 0.00 | 12 | 1011.0 |
| 20260510095429 | 68 | 179 | 0.0 | 0.0 | 0.00 | 0.00 | 0.00 | 12 | 1011.0 |
| 20260510094929 | 68 | 169 | 0.0 | 0.0 | 0.00 | 0.00 | 0.00 | 12 | 1011.0 |
| 20260510094429 | 68 | 174 | 0.0 | 0.0 | 0.00 | 0.00 | 0.00 | 10 | 1011.0 |
| 20260510093929 | 67 | 167 | 0.0 | 0.0 | 0.00 | 0.00 | 0.00 | 12 | 1011.0 |
| 20260510093429 | 67 | 185 | 0.0 | 0.0 | 0.00 | 0.00 | 0.00 | 10 | 1011.0 |
| 20260510092929 | 67 | 193 | 0.0 | 0.0 | 0.00 | 0.00 | 0.00 | 10 | 1011.0 |
| 20260510092429 | 66 | 169 | 0.0 | 0.0 | 0.00 | 0.00 | 0.00 | 10 | 1011.0 |
| 20260510091929 | 66 | 195 | 0.0 | 0.0 | 0.00 | 0.00 | 0.00 | 10 | 1011.0 |
| 20260510091429 | 66 | 181 | 0.0 | 0.0 | 0.00 | 0.00 | 0.00 | 10 | 1011.0 |
| 20260510090929 | 66 | 173 | 0.0 | 0.0 | 0.00 | 0.00 | 0.00 | 10 | 1011.0 |
| 20260510090429 | 66 | 169 | 0.0 | 0.0 | 0.00 | 0.00 | 0.00 | 10 | 1011.0 |
| 20260510085929 | 66 | 169 | 0.0 | 0.0 | 0.00 | 0.00 | 0.00 | 10 | 1011.0 |
| 20260510085433 | 65 | 176 | 0.0 | 0.0 | 0.00 | 0.00 | 0.00 | 10 | 1011.0 |
| 20260510084929 | 65 | 170 | 0.0 | 0.0 | 0.00 | 0.00 | 0.00 | 10 | 1011.0 |
| 20260510084429 | 65 | 178 | 0.0 | 0.0 | 0.00 | 0.00 | 0.00 | 10 | 1011.0 |
| 20260510083929 | 65 | 193 | 0.0 | 0.0 | 0.00 | 0.00 | 0.00 | 10 | 1011.0 |
| 20260510083429 | 65 | 189 | 0.0 | 0.0 | 0.00 | 0.00 | 0.00 | 10 | 1011.0 |
| 20260510082929 | 64 | 185 | 0.0 | 0.0 | 0.00 | 0.00 | 0.00 | 10 | 1011.0 |
| 20260510082429 | 64 | 192 | 0.0 | 0.0 | 0.00 | 0.00 | 0.00 | 10 | 1011.0 |
| 20260510081929 | 63 | 173 | 0.0 | 0.0 | 0.00 | 0.00 | 0.00 | 10 | 1011.0 |
| 20260510081433 | 63 | 194 | 0.0 | 0.0 | 0.00 | 0.00 | 0.00 | 10 | 1011.0 |
| 20260510080929 | 63 | 173 | 0.0 | 0.0 | 0.00 | 0.00 | 0.00 | 10 | 1011.0 |
| 20260510080429 | 62 | 168 | 0.0 | 0.0 | 0.00 | 0.00 | 0.00 | 10 | 1011.0 |
| 20260510075929 | 62 | 169 | 0.0 | 0.0 | 0.00 | 0.00 | 0.00 | 10 | 1011.0 |
| 20260510075429 | 62 | 190 | 0.0 | 0.0 | 0.00 | 0.00 | 0.00 | 10 | 1011.0 |
| 20260510074929 | 61 | 172 | 0.0 | 0.0 | 0.00 | 0.00 | 0.00 | 10 | 1011.0 |
| 20260510074429 | 60 | 169 | 0.0 | 0.0 | 0.00 | 0.00 | 0.00 | 10 | 1011.0 |
| 20260510073929 | 59 | 170 | 0.0 | 0.0 | 0.00 | 0.00 | 0.00 | 37 | 1011.0 |
| 20260510072929 | 58 | 169 | 0.0 | 0.0 | 0.00 | 0.00 | 0.00 | 51 | 1011.0 |
| 20260510072429 | 58 | 168 | 0.0 | 0.0 | 0.00 | 0.00 | 0.00 | 51 | 1011.0 |
| 20260510071929 | 58 | 181 | 0.0 | 0.0 | 0.00 | 0.00 | 0.00 | 52 | 1011.0 |
| 20260510071429 | 57 | 171 | 0.0 | 0.0 | 0.00 | 0.00 | 0.00 | 51 | 1011.0 |
| 20260510070929 | 57 | 167 | 0.0 | 0.0 | 0.00 | 0.00 | 0.00 | 52 | 1011.0 |
| 20260510070429 | 56 | 193 | 0.0 | 0.0 | 0.00 | 0.00 | 0.00 | 52 | 1011.0 |
| 20260510065929 | 56 | 193 | 0.0 | 0.0 | 0.00 | 0.00 | 0.00 | 52 | 1011.0 |
| 20260510065429 | 55 | 192 | 0.0 | 0.0 | 0.00 | 0.00 | 0.00 | 52 | 1011.0 |
| 20260510064929 | 55 | 175 | 0.0 | 0.0 | 0.00 | 0.00 | 0.00 | 52 | 1011.0 |
| 20260510064433 | 55 | 168 | 0.0 | 0.0 | 0.00 | 0.00 | 0.00 | 52 | 1012.0 |
| 20260510063929 | 55 | 175 | 0.0 | 0.0 | 0.00 | 0.00 | 0.00 | 52 | 1012.0 |
| 20260510063429 | 54 | 175 | 0.0 | 0.0 | 0.00 | 0.00 | 0.00 | 51 | 1012.0 |
| 20260510062929 | 54 | 177 | 0.0 | 0.0 | 0.00 | 0.00 | 0.00 | 52 | 1012.0 |
| 20260510062429 | 54 | 177 | 0.0 | 0.0 | 0.00 | 0.00 | 0.00 | 52 | 1012.0 |
| 20260510061929 | 54 | 187 | 0.0 | 0.0 | 0.00 | 0.00 | 0.00 | 52 | 1012.0 |
| 20260510061429 | 53 | 183 | 0.0 | 0.0 | 0.00 | 0.00 | 0.00 | 52 | 1012.0 |
| 20260510060929 | 53 | 174 | 0.0 | 0.0 | 0.00 | 0.00 | 0.00 | 52 | 1012.0 |
| 20260510060429 | 53 | 169 | 0.0 | 0.0 | 0.00 | 0.00 | 0.00 | 52 | 1012.0 |
| 20260510055929 | 53 | 192 | 0.0 | 0.0 | 0.00 | 0.00 | 0.00 | 52 | 1012.0 |
| 20260510055429 | 53 | 192 | 0.0 | 0.0 | 0.00 | 0.00 | 0.00 | 52 | 1012.0 |
| 20260510054929 | 53 | 173 | 0.0 | 0.0 | 0.00 | 0.00 | 0.00 | 50 | 1012.0 |
| 20260510054429 | 53 | 178 | 0.0 | 0.0 | 0.00 | 0.00 | 0.00 | 50 | 1013.0 |
| 20260510053929 | 53 | 171 | 0.0 | 0.0 | 0.00 | 0.00 | 0.00 | 50 | 1013.0 |
| 20260510053429 | 53 | 192 | 0.0 | 0.0 | 0.00 | 0.00 | 0.00 | 50 | 1013.0 |
| 20260510052929 | 53 | 191 | 0.0 | 0.0 | 0.00 | 0.00 | 0.00 | 50 | 1011.0 |
| 20260510052433 | 53 | 181 | 0.0 | 0.0 | 0.00 | 0.00 | 0.00 | 50 | 1011.0 |
| 20260510051929 | 53 | 174 | 0.0 | 0.0 | 0.00 | 0.00 | 0.00 | 50 | 1011.0 |
| 20260510051429 | 53 | 191 | 0.0 | 0.0 | 0.00 | 0.00 | 0.00 | 50 | 1011.0 |
| 20260510050929 | 53 | 175 | 0.0 | 0.0 | 0.00 | 0.00 | 0.00 | 49 | 1011.0 |
| 20260510050429 | 53 | 190 | 0.0 | 0.0 | 0.00 | 0.00 | 0.00 | 47 | 1011.0 |
| 20260510045929 | 52 | 172 | 0.0 | 0.0 | 0.00 | 0.00 | 0.00 | 46 | 1011.0 |
| 20260510045429 | 52 | 165 | 0.0 | 0.0 | 0.00 | 0.00 | 0.00 | 46 | 1011.0 |
| 20260510044929 | 52 | 184 | 0.0 | 0.0 | 0.00 | 0.00 | 0.00 | 45 | 1011.0 |
| 20260510044429 | 52 | 175 | 0.0 | 0.0 | 0.00 | 0.00 | 0.00 | 45 | 1012.0 |
| 20260510043929 | 52 | 185 | 0.0 | 0.0 | 0.00 | 0.00 | 0.00 | 45 | 1012.0 |
| 20260510043429 | 52 | 190 | 0.0 | 0.0 | 0.00 | 0.00 | 0.00 | 45 | 1012.0 |
| 20260510042929 | 52 | 168 | 0.0 | 0.0 | 0.00 | 0.00 | 0.00 | 45 | 1012.0 |
| 20260510041929 | 52 | 182 | 0.0 | 0.0 | 0.00 | 0.00 | 0.00 | 44 | 1012.0 |
| 20260510041429 | 52 | 189 | 0.0 | 0.0 | 0.00 | 0.00 | 0.00 | 43 | 1012.0 |
| 20260510040929 | 52 | 179 | 0.0 | 0.0 | 0.00 | 0.00 | 0.00 | 43 | 1012.0 |
| 20260510040429 | 52 | 168 | 0.0 | 0.0 | 0.00 | 0.00 | 0.00 | 43 | 1012.0 |
| 20260510035929 | 52 | 170 | 0.0 | 0.0 | 0.00 | 0.00 | 0.00 | 43 | 1012.0 |
| 20260510035429 | 52 | 188 | 0.0 | 0.0 | 0.00 | 0.00 | 0.00 | 43 | 1012.0 |
| 20260510034929 | 52 | 187 | 0.0 | 0.0 | 0.00 | 0.00 | 0.00 | 43 | 1012.0 |
| 20260510034429 | 52 | 164 | 0.0 | 0.0 | 0.00 | 0.00 | 0.00 | 42 | 1012.0 |
| 20260510033929 | 53 | 173 | 0.0 | 0.0 | 0.00 | 0.00 | 0.00 | 41 | 1012.0 |
| 20260510033429 | 53 | 171 | 0.0 | 0.0 | 0.00 | 0.00 | 0.00 | 41 | 1012.0 |
| 20260510032929 | 53 | 188 | 0.0 | 0.0 | 0.00 | 0.00 | 0.00 | 41 | 1013.0 |
| 20260510032429 | 53 | 176 | 0.0 | 0.0 | 0.00 | 0.00 | 0.00 | 41 | 1013.0 |
| 20260510031929 | 53 | 167 | 0.0 | 0.0 | 0.00 | 0.00 | 0.00 | 41 | 1013.0 |
| 20260510031429 | 53 | 165 | 0.0 | 0.0 | 0.00 | 0.00 | 0.00 | 42 | 1013.0 |
| 20260510030929 | 53 | 170 | 0.0 | 0.0 | 0.00 | 0.00 | 0.00 | 42 | 1013.0 |
| 20260510030429 | 53 | 166 | 0.0 | 0.0 | 0.00 | 0.00 | 0.00 | 40 | 1013.0 |
| 20260510025929 | 53 | 185 | 0.0 | 0.0 | 0.00 | 0.00 | 0.00 | 40 | 1013.0 |
| 20260510025429 | 54 | 169 | 0.0 | 0.0 | 0.00 | 0.00 | 0.00 | 36 | 1013.0 |
| 20260510024429 | 54 | 165 | 0.0 | 0.0 | 0.00 | 0.00 | 0.00 | 27 | 1014.0 |
| 20260510023929 | 54 | 179 | 0.0 | 0.0 | 0.00 | 0.00 | 0.00 | 10 | 1014.0 |
| 20260510023432 | 54 | 185 | 0.0 | 0.0 | 0.00 | 0.00 | 0.00 | 10 | 1014.0 |
| 20260510022929 | 54 | 183 | 0.0 | 0.0 | 0.00 | 0.00 | 0.00 | 10 | 1014.0 |
| 20260510022429 | 54 | 170 | 0.0 | 0.0 | 0.00 | 0.00 | 0.00 | 10 | 1014.0 |
| 20260510021929 | 54 | 175 | 0.0 | 0.0 | 0.00 | 0.00 | 0.00 | 10 | 1014.0 |
| 20260510021429 | 55 | 167 | 0.0 | 0.0 | 0.00 | 0.00 | 0.00 | 10 | 1014.0 |
| 20260510020929 | 55 | 180 | 0.0 | 0.0 | 0.00 | 0.00 | 0.00 | 10 | 1014.0 |
| 20260510020429 | 55 | 171 | 0.0 | 0.0 | 0.00 | 0.00 | 0.00 | 10 | 1014.0 |
| 20260510015929 | 55 | 181 | 0.0 | 0.0 | 0.00 | 0.00 | 0.00 | 10 | 1013.0 |
| 20260510015429 | 55 | 171 | 0.0 | 0.0 | 0.00 | 0.00 | 0.00 | 10 | 1013.0 |
| 20260510014929 | 56 | 180 | 0.0 | 0.0 | 0.00 | 0.00 | 0.00 | 10 | 1013.0 |
| 20260510014429 | 56 | 155 | 0.0 | 0.0 | 0.00 | 0.00 | 0.00 | 10 | 1012.0 |
| 20260510013929 | 55 | 178 | 0.0 | 0.0 | 0.00 | 0.00 | 0.00 | 10 | 1012.0 |
| 20260510013429 | 54 | 154 | 0.0 | 0.0 | 0.00 | 0.00 | 0.00 | 10 | 1012.0 |
| 20260510012929 | 54 | 155 | 0.0 | 0.0 | 0.00 | 0.00 | 0.00 | 10 | 1012.0 |
| 20260510012429 | 54 | 165 | 0.0 | 0.0 | 0.00 | 0.00 | 0.00 | 26 | 1012.0 |
| 20260510011929 | 53 | 181 | 0.0 | 0.0 | 0.00 | 0.00 | 0.00 | 28 | 1012.0 |
| 20260510011429 | 52 | 158 | 0.0 | 0.0 | 0.00 | 0.00 | 0.00 | 10 | 1013.0 |
| 20260510010429 | 54 | 177 | 0.0 | 0.0 | 0.00 | 0.00 | 0.00 | 10 | 1013.0 |
| 20260510005929 | 57 | 174 | 0.0 | 0.0 | 0.00 | 0.00 | 0.00 | 10 | 1011.0 |
| 20260510005429 | 62 | 154 | 0.0 | 0.0 | 0.00 | 0.00 | 0.00 | 16 | 1011.0 |
| 20260510004929 | 62 | 155 | 0.0 | 0.0 | 0.00 | 0.00 | 0.00 | 13 | 1011.0 |
| 20260510004429 | 62 | 167 | 0.0 | 0.0 | 0.00 | 0.00 | 0.00 | 13 | 1010.0 |
| 20260510003929 | 61 | 178 | 0.0 | 0.0 | 0.00 | 0.00 | 0.00 | 14 | 1010.0 |
| 20260510003429 | 60 | 172 | 0.0 | 0.0 | 0.00 | 0.00 | 0.00 | 14 | 1010.0 |
| 20260510002929 | 59 | 165 | 0.0 | 0.0 | 0.00 | 0.00 | 0.00 | 14 | 1010.0 |
| 20260510002429 | 59 | 176 | 0.0 | 0.0 | 0.00 | 0.00 | 0.00 | 14 | 1010.0 |
| 20260510001929 | 58 | 151 | 0.0 | 0.0 | 0.00 | 0.00 | 0.00 | 12 | 1010.0 |
| 20260510001429 | 57 | 164 | 0.0 | 0.0 | 0.00 | 0.00 | 0.00 | 12 | 1010.0 |
| 20260510000929 | 57 | 156 | 0.0 | 0.0 | 0.00 | 0.00 | 0.00 | 12 | 1010.0 |
| 20260510000429 | 57 | 176 | 0.0 | 0.0 | 0.00 | 0.00 | 0.00 | 10 | 1010.0 |
| 20260509235929 | 56 | 172 | 0.0 | 0.0 | 0.00 | 0.00 | 0.00 | 10 | 1011.0 |
| 20260509235429 | 56 | 167 | 0.0 | 0.0 | 0.00 | 0.00 | 0.00 | 10 | 1011.0 |
| 20260509234929 | 56 | 151 | 0.0 | 0.0 | 0.00 | 0.00 | 0.00 | 10 | 1011.0 |
| 20260509234429 | 56 | 154 | 0.0 | 0.0 | 0.00 | 0.00 | 0.00 | 10 | 1011.0 |
| 20260509233929 | 55 | 177 | 0.0 | 0.0 | 0.00 | 0.00 | 0.00 | 10 | 1011.0 |
| 20260509233429 | 55 | 169 | 0.0 | 0.0 | 0.00 | 0.00 | 0.00 | 12 | 1011.0 |
| 20260509232929 | 55 | 180 | 0.0 | 0.0 | 0.00 | 0.00 | 0.00 | 12 | 1011.0 |
| 20260509232429 | 55 | 177 | 0.0 | 0.0 | 0.00 | 0.00 | 0.00 | 12 | 1011.0 |
| 20260509231929 | 55 | 156 | 0.0 | 0.0 | 0.00 | 0.00 | 0.00 | 10 | 1011.0 |
| 20260509231429 | 55 | 158 | 0.0 | 0.0 | 0.00 | 0.00 | 0.00 | 10 | 1011.0 |
| 20260509230929 | 55 | 161 | 0.0 | 0.0 | 0.00 | 0.00 | 0.00 | 10 | 1011.0 |
| 20260509230429 | 55 | 165 | 0.0 | 0.0 | 0.00 | 0.00 | 0.00 | 10 | 1011.0 |
| 20260509225929 | 55 | 179 | 0.0 | 0.0 | 0.00 | 0.00 | 0.00 | 10 | 1011.0 |
| 20260509225429 | 55 | 182 | 0.0 | 0.0 | 0.00 | 0.00 | 0.00 | 10 | 1011.0 |
| 20260509224929 | 55 | 160 | 0.0 | 0.0 | 0.00 | 0.00 | 0.00 | 10 | 1011.0 |
| 20260509224429 | 55 | 184 | 0.0 | 0.0 | 0.00 | 0.00 | 0.00 | 10 | 1012.0 |
| 20260509223929 | 55 | 167 | 0.0 | 0.0 | 0.00 | 0.00 | 0.00 | 10 | 1012.0 |
| 20260509223429 | 55 | 159 | 0.0 | 0.0 | 0.00 | 0.00 | 0.00 | 10 | 1012.0 |
| 20260509222929 | 55 | 160 | 0.0 | 0.0 | 0.00 | 0.00 | 0.00 | 10 | 1012.0 |
| 20260509222429 | 55 | 175 | 0.0 | 0.0 | 0.00 | 0.00 | 0.00 | 10 | 1012.0 |
| 20260509221929 | 55 | 182 | 0.0 | 0.0 | 0.00 | 0.00 | 0.00 | 10 | 1012.0 |
| 20260509221429 | 55 | 186 | 0.0 | 0.0 | 0.00 | 0.00 | 0.00 | 10 | 1012.0 |
| 20260509220929 | 55 | 162 | 0.0 | 0.0 | 0.00 | 0.00 | 0.00 | 10 | 1012.0 |
| 20260509220429 | 55 | 163 | 0.0 | 0.0 | 0.00 | 0.00 | 0.00 | 10 | 1012.0 |
| 20260509215929 | 55 | 181 | 0.0 | 0.0 | 0.00 | 0.00 | 0.00 | 10 | 1012.0 |
| 20260509215429 | 55 | 166 | 0.0 | 0.0 | 0.00 | 0.00 | 0.00 | 10 | 1012.0 |
| 20260509214929 | 55 | 184 | 0.0 | 0.0 | 0.00 | 0.00 | 0.00 | 10 | 1012.0 |
| 20260509214429 | 55 | 163 | 0.0 | 0.0 | 0.00 | 0.00 | 0.00 | 10 | 1012.0 |
| 20260509213929 | 56 | 171 | 0.0 | 0.0 | 0.00 | 0.00 | 0.00 | 10 | 1012.0 |
| 20260509213429 | 56 | 184 | 0.0 | 0.0 | 0.00 | 0.00 | 0.00 | 10 | 1012.0 |
| 20260509212929 | 56 | 188 | 0.0 | 0.0 | 0.00 | 0.00 | 0.00 | 10 | 1012.0 |
| 20260509212429 | 56 | 188 | 0.0 | 0.0 | 0.00 | 0.00 | 0.00 | 10 | 1012.0 |
| 20260509211929 | 56 | 165 | 0.0 | 0.0 | 0.00 | 0.00 | 0.00 | 10 | 1012.0 |
| 20260509211429 | 56 | 167 | 0.0 | 0.0 | 0.00 | 0.00 | 0.00 | 10 | 1012.0 |
| 20260509210929 | 56 | 182 | 0.0 | 0.0 | 0.00 | 0.00 | 0.00 | 10 | 1012.0 |
| 20260509210429 | 56 | 189 | 0.0 | 0.0 | 0.00 | 0.00 | 0.00 | 10 | 1012.0 |
| 20260509205929 | 56 | 167 | 0.0 | 0.0 | 0.00 | 0.00 | 0.00 | 10 | 1012.0 |
| 20260509205429 | 56 | 168 | 0.0 | 0.0 | 0.00 | 0.00 | 0.00 | 10 | 1012.0 |
| 20260509204929 | 57 | 167 | 0.0 | 0.0 | 0.00 | 0.00 | 0.00 | 10 | 1012.0 |
| 20260509204429 | 57 | 167 | 0.0 | 0.0 | 0.00 | 0.00 | 0.00 | 10 | 1012.0 |
| 20260509203929 | 57 | 185 | 0.0 | 0.0 | 0.00 | 0.00 | 0.00 | 10 | 1012.0 |
| 20260509203429 | 57 | 186 | 0.0 | 0.0 | 0.00 | 0.00 | 0.00 | 10 | 1012.0 |
| 20260509202929 | 57 | 175 | 0.0 | 0.0 | 0.00 | 0.00 | 0.00 | 10 | 1012.0 |
| 20260509202429 | 57 | 173 | 0.0 | 0.0 | 0.00 | 0.00 | 0.00 | 10 | 1012.0 |
| 20260509201929 | 57 | 177 | 0.0 | 0.0 | 0.00 | 0.00 | 0.00 | 10 | 1012.0 |
| 20260509200929 | 57 | 168 | 0.0 | 0.0 | 0.00 | 0.00 | 0.00 | 10 | 1012.0 |
| 20260509200429 | 57 | 185 | 0.0 | 0.0 | 0.00 | 0.00 | 0.00 | 10 | 1012.0 |
| 20260509195929 | 57 | 194 | 0.0 | 0.0 | 0.00 | 0.00 | 0.00 | 10 | 1012.0 |
| 20260509195429 | 57 | 181 | 0.0 | 0.0 | 0.00 | 0.00 | 0.00 | 10 | 1012.0 |
| 20260509194929 | 57 | 185 | 0.0 | 0.0 | 0.00 | 0.00 | 0.00 | 10 | 1012.0 |
| 20260509194429 | 57 | 180 | 0.0 | 0.0 | 0.00 | 0.00 | 0.00 | 10 | 1013.0 |
| 20260509193929 | 57 | 181 | 0.0 | 0.0 | 0.00 | 0.00 | 0.00 | 10 | 1013.0 |
| 20260509193429 | 58 | 189 | 0.0 | 0.0 | 0.00 | 0.00 | 0.00 | 10 | 1013.0 |
| 20260509192929 | 58 | 170 | 0.0 | 0.0 | 0.00 | 0.00 | 0.00 | 10 | 1013.0 |
| 20260509192429 | 58 | 196 | 0.0 | 0.0 | 0.00 | 0.00 | 0.00 | 10 | 1013.0 |
| 20260509191929 | 58 | 195 | 0.0 | 0.0 | 0.00 | 0.00 | 0.00 | 10 | 1013.0 |
| 20260509191429 | 58 | 174 | 0.0 | 0.0 | 0.00 | 0.00 | 0.00 | 10 | 1012.0 |
| 20260509190929 | 58 | 196 | 0.0 | 0.0 | 0.00 | 0.00 | 0.00 | 10 | 1012.0 |
| 20260509190429 | 58 | 171 | 0.0 | 0.0 | 0.00 | 0.00 | 0.00 | 10 | 1012.0 |
| 20260509185929 | 58 | 185 | 0.0 | 0.0 | 0.00 | 0.00 | 0.00 | 10 | 1012.0 |
| 20260509185429 | 58 | 199 | 0.0 | 0.0 | 0.00 | 0.00 | 0.00 | 10 | 1012.0 |
| 20260509184929 | 58 | 195 | 0.0 | 0.0 | 0.00 | 0.00 | 0.00 | 10 | 1012.0 |
| 20260509184429 | 58 | 174 | 0.0 | 0.0 | 0.00 | 0.00 | 0.00 | 10 | 1012.0 |
| 20260509183929 | 58 | 184 | 0.0 | 0.0 | 0.00 | 0.00 | 0.00 | 10 | 1012.0 |
| 20260509183429 | 58 | 178 | 0.0 | 0.0 | 0.00 | 0.00 | 0.00 | 10 | 1012.0 |
| 20260509182929 | 58 | 176 | 0.0 | 0.0 | 0.00 | 0.00 | 0.00 | 10 | 1012.0 |
| 20260509182429 | 58 | 205 | 0.0 | 0.0 | 0.00 | 0.00 | 0.00 | 10 | 1012.0 |
| 20260509181929 | 58 | 193 | 0.0 | 0.0 | 0.00 | 0.00 | 0.00 | 10 | 1012.0 |
| 20260509181429 | 58 | 191 | 0.0 | 0.0 | 0.00 | 0.00 | 0.00 | 10 | 1012.0 |
| 20260509180929 | 59 | 191 | 0.0 | 0.0 | 0.00 | 0.00 | 0.00 | 10 | 1012.0 |
| 20260509180429 | 59 | 195 | 0.0 | 0.0 | 0.00 | 0.00 | 0.00 | 10 | 1012.0 |
| 20260509175929 | 59 | 205 | 0.0 | 0.0 | 0.00 | 0.00 | 0.00 | 10 | 1012.0 |
| 20260509175429 | 59 | 205 | 0.0 | 0.0 | 0.00 | 0.00 | 0.00 | 10 | 1012.0 |
| 20260509174929 | 59 | 192 | 0.0 | 0.0 | 0.00 | 0.00 | 0.00 | 10 | 1012.0 |
| 20260509174429 | 60 | 203 | 0.0 | 0.0 | 0.00 | 0.00 | 0.00 | 10 | 1012.0 |
| 20260509173929 | 60 | 204 | 0.0 | 0.0 | 0.00 | 0.00 | 0.00 | 10 | 1012.0 |
| 20260509173429 | 60 | 206 | 0.0 | 0.0 | 0.00 | 0.00 | 0.00 | 10 | 1012.0 |
| 20260509172929 | 61 | 183 | 0.0 | 0.0 | 0.00 | 0.00 | 0.00 | 10 | 1012.0 |
| 20260509172429 | 61 | 178 | 0.0 | 0.0 | 0.00 | 0.00 | 0.00 | 10 | 1012.0 |
| 20260509171929 | 62 | 200 | 0.0 | 0.0 | 0.00 | 0.00 | 0.00 | 10 | 1012.0 |
| 20260509171429 | 62 | 182 | 0.0 | 0.0 | 0.00 | 0.00 | 0.00 | 10 | 1012.0 |
| 20260509170929 | 63 | 188 | 0.0 | 0.0 | 0.00 | 0.00 | 0.00 | 10 | 1012.0 |
| 20260509170429 | 64 | 180 | 0.0 | 0.0 | 0.00 | 0.00 | 0.00 | 10 | 1012.0 |